STARLINK-2156, 47742

Orbit data source: Space-Track

STARLINK-2156, 47742 is a payload satellite owned by SpaceX/Seattle (US) in LEO that was launched on Thu, 04 Mar 2021 UTC via an FALCON 9 launch vehicle from the Air Force Eastern Test Range (AFETR). Payload-class satellites include a variety of spacecraft equipped with specific instruments for various scientific and technological missions. These include communications satellites like Starlink; space stations such as the ISS; scientific satellites like the Hubble; Earth observation satellites from companies like Planet Labs, Umbra, and HawkEye 360; GPS; miniature CubeSats for education and research; and military/defense satellites.

Loading next visibility...
Identifier
47742, 2021-017W
Orbit
LEO
Country
Flag of USUS
Related business
Manufacturer
SpaceX/Seattle
Mission
Operational Commercial Communications
Bus & Motor
STARLINK, Unknown motor
Mass
260 kg wet, ~248 kg dry
Launch date (UTC)
2021-03-04 (5 years ago)
Launch vehicle
FALCON 9
Launch site
Air Force Eastern Test Range (AFETR)
Object type
Payload
Rocket body
Debris
Shape & HBR
Box + 1 Pan, 10.1 m
Radar Cross Section
13.562 m², Large (>1 m²)

Expand to show TLE details & history
Last TLE update: 2 days ago

TLE from 2 days ago
0 STARLINK-2156
1 47742U 21017W   26170.96560243 -.00004597  00000-0 -13649-3 0  9999
2 47742  53.1599  78.3569 0001388 123.4575 236.6559 15.31692736293703
Epoch: 2026-06-19T23:10Z
TLE epoch observation values (Epoch: 2026-06-19T23:10:28.049Z)
Latitude
-0.00007°
Longitude
-177.44703°
Altitude
472.185 km
Speed
7.631 km/s
True Right ascension
05h 13m 25s
True Declination
0° 00' 00"
Sunlit
Object was in daylight at epoch
Visualization orbit readout
Latitude
Unknown
Longitude
Unknown
Altitude
Unknown
Speed
Unknown
Apparent Right ascension
Unknown
Apparent Declination
Unknown
Sunlit
N/A
Visualization observer readout
Local Sidereal Time
21:38:48
Azimuth
Unknown
Elevation
Unknown
Doppler factor
Unknown
Orbital elements
Apogee altitude
471.969 km
Perigee altitude
470.068 km
Semi-major axis
6,849.155 km
Eccentricity
0.00014
Inclination
53.1599°
RAAN
78.3569°
Arg. of periapsis
123.4575°
True anomaly
236.64261°
Mean anomaly
236.6559°
Eccentric anomaly
236.64926°
Mean motion
3.82902 °/min
Orbital period
94.02 mins
BSTAR
-0.00013649
Loading maneuver chart data...
Computing Atmospheric mass density...

Documentation

Showing up to 5 results
|